GW6002 Weather Reports


Display with metric or nautical units.
time (UTC)temp
F
wind
direction
speed
MPH
gust
MPH
rain 1hr
in
rain 24hr
in
rain mn
in
humidity
%
barometer
mb
20260507060355 54 11 1.0 3.0 0.00 0.00 0.00 88 1004.9
20260507055852 54 40 0.0 4.0 0.00 0.00 0.00 89 1004.9
20260507055346 53 47 2.0 4.0 0.00 0.00 0.00 89 1005.0
20260507054844 53 37 3.0 6.0 0.00 0.00 0.00 90 1004.9
20260507054340 53 18 4.0 4.0 0.00 0.00 0.00 90 1005.1
20260507053837 53 18 3.0 3.0 0.00 0.00 0.00 90 1005.1
20260507053335 53 47 0.0 1.0 0.00 0.00 0.00 90 1005.4
20260507052833 53 43 2.0 4.0 0.00 0.00 0.00 90 1005.2
20260507052330 52 44 1.0 2.0 0.00 0.00 0.00 91 1005.5
20260507051827 52 34 0.0 1.0 0.00 0.00 0.00 92 1005.4
20260507051325 51 55 0.0 1.0 0.00 0.00 0.00 93 1005.3
20260507050822 51 76 0.0 0.0 0.00 0.00 0.00 94 1005.3
20260507050318 51 120 0.0 2.0 0.00 0.00 0.00 94 1005.6
20260507045815 50 121 1.0 3.0 0.00 0.00 0.00 94 1005.8
20260507045311 50 103 3.0 4.0 0.00 0.00 0.00 95 1005.6
20260507044809 50 140 1.0 2.0 0.00 0.00 0.00 95 1005.8
20260507044305 50 133 0.0 1.0 0.00 0.00 0.00 96 1006.0
20260507043801 49 129 0.0 2.0 0.00 0.00 0.00 96 1006.1
20260507043258 49 106 0.0 1.0 0.00 0.00 0.00 96 1005.8
20260507042754 49 145 0.0 0.0 0.00 0.00 0.00 96 1006.2
20260507042249 49 110 0.0 3.0 0.00 0.00 0.00 96 1006.0
20260507041747 48 139 0.0 1.0 0.00 0.00 0.00 96 1006.0
20260507041244 49 130 0.0 3.0 0.00 0.00 0.00 96 1006.1
20260507040741 49 82 0.0 0.0 0.00 0.00 0.00 97 1006.1
20260507040237 48 82 0.0 0.0 0.00 0.00 0.00 97 1005.9
20260507035733 48 108 0.0 0.0 0.00 0.00 0.00 97 1005.9
20260507035228 47 150 0.0 1.0 0.00 0.00 0.00 97 1006.1
20260507034726 46 21 0.0 0.0 0.00 0.00 0.00 97 1006.1
20260507034223 46 21 3.0 3.0 0.00 0.00 0.00 97 1005.7
20260507033721 46 21 0.0 0.0 0.00 0.00 0.00 97 1005.7
20260507033218 45 21 0.0 0.0 0.00 0.00 0.00 97 1006.0
20260507032716 44 22 0.0 0.0 0.00 0.00 0.00 97 1005.9
20260507032211 43 21 0.0 0.0 0.00 0.00 0.00 97 1006.1
20260507031708 43 21 0.0 0.0 0.00 0.00 0.00 97 1006.0
20260507031205 43 21 2.0 3.0 0.00 0.00 0.00 97 1005.7
20260507030702 44 8 3.0 3.0 0.00 0.00 0.00 97 1005.9
20260507030200 44 8 3.0 3.0 0.00 0.00 0.00 97 1005.9
20260507025656 44 7 0.0 0.0 0.00 0.00 0.00 97 1006.0
20260507025153 45 7 0.0 0.0 0.00 0.00 0.00 97 1006.0
20260507024652 44 7 0.0 0.0 0.00 0.00 0.00 97 1006.1
20260507024148 45 7 0.0 0.0 0.00 0.00 0.00 97 1006.1
20260507023644 45 7 0.0 0.0 0.00 0.00 0.00 97 1006.1
20260507023142 45 8 0.0 0.0 0.00 0.00 0.00 97 1006.2
20260507022638 45 7 0.0 0.0 0.00 0.00 0.00 97 1006.2
20260507022134 44 7 0.0 0.0 0.00 0.00 0.00 97 1006.1
20260507021630 44 7 0.0 0.0 0.00 0.00 0.00 97 1006.1
20260507021126 44 7 0.0 0.0 0.00 0.00 0.00 97 1005.9
20260507020625 44 7 0.0 0.0 0.00 0.00 0.00 97 1006.0
20260507020120 44 7 0.0 0.0 0.00 0.00 0.00 97 1005.7
20260507015619 44 7 0.0 0.0 0.00 0.00 0.00 97 1006.0
20260507015116 44 7 0.0 0.0 0.00 0.00 0.00 97 1005.8
20260507014612 44 7 0.0 0.0 0.00 0.00 0.00 96 1005.7
20260507014108 44 7 0.0 0.0 0.00 0.00 0.00 97 1005.8
20260507013605 44 7 0.0 0.0 0.00 0.00 0.00 96 1005.8
20260507013102 45 7 0.0 0.0 0.00 0.00 0.00 96 1005.7
20260507012600 45 7 0.0 0.0 0.00 0.00 0.00 97 1005.7
20260507012055 45 7 0.0 0.0 0.00 0.00 0.00 97 1005.7
20260507011553 45 7 0.0 0.0 0.00 0.00 0.00 96 1005.6
20260507011049 45 7 0.0 0.0 0.00 0.00 0.00 96 1005.8
20260507010544 46 7 0.0 0.0 0.00 0.00 0.00 96 1005.7
20260507010040 46 7 0.0 0.0 0.00 0.00 0.00 97 1005.6
20260507005538 45 7 0.0 0.0 0.00 0.00 0.00 96 1005.4
20260507005034 46 7 0.0 0.0 0.00 0.00 0.00 96 1005.6
20260507004531 46 7 0.0 0.0 0.00 0.00 0.00 96 1005.6
20260507004029 46 7 0.0 0.0 0.00 0.00 0.00 96 1005.5
20260507003524 46 7 0.0 0.0 0.00 0.00 0.00 97 1005.7
20260507003019 46 7 0.0 0.0 0.00 0.00 0.00 97 1005.6
20260507002516 45 7 0.0 0.0 0.00 0.00 0.00 96 1005.6
20260507002013 45 7 0.0 0.0 0.00 0.00 0.00 96 1005.5
20260507001509 46 7 0.0 3.0 0.00 0.00 0.00 96 1005.5
20260507001007 46 7 0.0 0.0 0.00 0.00 0.00 96 1005.5
20260507000502 45 7 0.0 0.0 0.00 0.00 0.00 96 1005.6
20260506235957 45 6 0.0 0.0 0.00 0.00 0.00 96 1005.7
20260506235455 45 6 0.0 0.0 0.00 0.00 0.00 95 1005.5
20260506234951 46 6 0.0 0.0 0.00 0.00 0.00 95 1005.4
20260506234449 46 6 0.0 0.0 0.00 0.00 0.00 95 1005.6
20260506233946 47 6 0.0 0.0 0.00 0.00 0.00 95 1005.5
20260506233442 47 6 0.0 0.0 0.00 0.00 0.00 95 1005.4
20260506232939 47 6 0.0 0.0 0.00 0.00 0.00 95 1005.3
20260506232435 47 6 0.0 0.0 0.00 0.00 0.00 95 1005.7
20260506231931 47 6 0.0 0.0 0.00 0.00 0.00 95 1005.4
20260506231429 48 356 0.0 2.0 0.00 0.00 0.00 94 1005.5
20260506230926 48 3 2.0 2.0 0.00 0.00 0.00 94 1005.6
20260506230422 48 49 1.0 2.0 0.00 0.00 0.00 95 1005.5
20260506225919 48 50 0.0 0.0 0.00 0.00 0.00 95 1005.5
20260506225416 48 50 0.0 2.0 0.00 0.00 0.00 95 1005.3
20260506224913 48 50 0.0 0.0 0.00 0.00 0.00 94 1005.3
20260506224411 48 50 0.0 0.0 0.00 0.00 0.00 94 1005.5
20260506223906 48 25 0.0 0.0 0.00 0.00 0.00 94 1005.5
20260506223402 49 23 3.0 3.0 0.00 0.00 0.00 94 1005.4
20260506222859 49 22 3.0 3.0 0.00 0.00 0.00 93 1005.4
20260506222355 50 22 2.0 2.0 0.00 0.00 0.00 93 1005.4
20260506221853 50 22 0.0 0.0 0.00 0.00 0.00 92 1005.3
20260506221350 50 22 0.0 0.0 0.00 0.00 0.00 92 1005.1
20260506220848 50 22 0.0 0.0 0.00 0.00 0.00 90 1005.1
20260506220343 50 23 0.0 0.0 0.00 0.00 0.00 91 1005.0
20260506215840 50 108 0.0 0.0 0.00 0.00 0.00 91 1005.2
20260506215336 51 56 0.0 0.0 0.00 0.00 0.00 90 1004.9
20260506214832 51 56 0.0 0.0 0.00 0.00 0.00 89 1005.0
20260506214329 52 56 0.0 0.0 0.00 0.00 0.00 89 1004.9
20260506213827 52 57 0.0 0.0 0.00 0.00 0.00 89 1004.8
20260506213324 52 57 0.0 0.0 0.00 0.00 0.00 89 1005.1
20260506212821 52 57 0.0 0.0 0.00 0.00 0.00 89 1004.8
20260506212317 52 56 0.0 0.0 0.00 0.00 0.00 89 1004.9
20260506211812 52 32 0.0 0.0 0.00 0.00 0.00 89 1004.6
20260506211308 52 5 0.0 0.0 0.00 0.00 0.00 88 1004.6
20260506210806 52 5 0.0 0.0 0.00 0.00 0.00 88 1004.7
20260506210302 52 5 0.0 0.0 0.00 0.00 0.00 88 1004.7
20260506205800 52 5 0.0 0.0 0.00 0.00 0.00 88 1004.8
20260506205255 52 325 0.0 3.0 0.00 0.00 0.00 87 1004.7
20260506204752 53 63 2.0 3.0 0.00 0.00 0.00 85 1004.4
20260506204250 53 358 2.0 3.0 0.00 0.00 0.00 85 1004.6
20260506203747 53 49 2.0 2.0 0.00 0.00 0.00 85 1004.8
20260506203244 53 49 0.0 1.0 0.00 0.00 0.00 85 1004.5
20260506202742 53 71 0.0 0.0 0.00 0.00 0.00 85 1004.6
20260506202238 53 48 0.0 2.0 0.00 0.00 0.00 86 1004.4
20260506201735 53 45 3.0 4.0 0.00 0.00 0.00 85 1004.4
20260506201232 54 45 2.0 2.0 0.00 0.00 0.00 84 1004.6
20260506200729 54 46 0.0 1.0 0.00 0.00 0.00 83 1004.6
20260506200226 54 46 1.0 3.0 0.00 0.00 0.00 83 1004.4
20260506195721 55 76 2.0 6.0 0.00 0.00 0.00 84 1004.3
20260506195218 55 44 0.0 1.0 0.00 0.00 0.00 83 1004.6
20260506194716 55 13 2.0 3.0 0.00 0.00 0.00 82 1004.6
20260506194212 55 356 4.0 4.0 0.00 0.00 0.00 83 1004.5
20260506193710 54 24 5.0 6.0 0.00 0.00 0.00 84 1004.7
20260506193207 55 34 2.0 7.0 0.00 0.00 0.00 83 1004.4
20260506192704 56 15 6.0 7.0 0.00 0.00 0.00 81 1004.5
20260506192200 56 21 6.0 8.0 0.00 0.00 0.00 80 1004.6
20260506191657 56 355 8.0 9.0 0.00 0.00 0.00 80 1004.6
20260506191153 56 339 4.0 8.0 0.00 0.00 0.00 80 1004.5
20260506190650 57 352 6.0 8.0 0.00 0.00 0.00 80 1004.5
20260506190147 57 348 7.0 7.0 0.00 0.00 0.00 80 1004.2
20260506185644 57 2 6.0 7.0 0.00 0.00 0.00 80 1004.1
20260506185140 57 13 4.0 4.0 0.00 0.00 0.00 80 1004.0
20260506184638 57 348 6.0 7.0 0.00 0.00 0.00 80 1004.1
20260506184135 57 23 3.0 4.0 0.00 0.00 0.00 80 1003.8
20260506183631 57 62 0.0 1.0 0.00 0.00 0.00 79 1003.7
20260506183127 57 77 1.0 2.0 0.00 0.00 0.00 79 1003.6
20260506182625 57 68 2.0 3.0 0.00 0.00 0.00 79 1003.5
20260506182122 57 59 0.0 1.0 0.00 0.00 0.00 79 1003.5
20260506181620 57 69 2.0 4.0 0.00 0.00 0.00 78 1003.5
20260506181117 57 52 2.0 4.0 0.00 0.00 0.00 78 1003.2
20260506180614 58 70 2.0 4.0 0.00 0.00 0.00 78 1003.1
20260506180110 58 66 4.0 4.0 0.00 0.00 0.00 78 1003.2
20260506175606 58 55 3.0 6.0 0.00 0.00 0.00 77 1003.2
20260506175102 58 82 4.0 7.0 0.00 0.00 0.00 77 1003.0
20260506174601 58 45 8.0 10.0 0.00 0.00 0.00 77 1003.0
20260506174057 58 65 3.0 7.0 0.00 0.00 0.00 77 1003.2
20260506173555 59 95 4.0 8.0 0.00 0.00 0.00 76 1003.1
20260506173051 59 76 1.0 6.0 0.00 0.00 0.00 76 1003.0
20260506172549 59 98 6.0 7.0 0.00 0.00 0.00 75 1003.0
20260506172045 59 103 3.0 9.0 0.00 0.00 0.00 75 1003.2
20260506171543 59 79 4.0 8.0 0.00 0.00 0.00 75 1003.0
20260506171040 59 76 2.0 8.0 0.00 0.00 0.00 74 1003.1
20260506170537 59 75 5.0 6.0 0.00 0.00 0.00 74 1003.1
20260506170035 59 137 6.0 9.0 0.00 0.00 0.00 73 1003.0
20260506165533 59 101 4.0 6.0 0.00 0.00 0.00 74 1003.0
20260506165029 60 56 4.0 11.0 0.00 0.00 0.00 73 1003.3
20260506164526 60 91 3.0 6.0 0.00 0.00 0.00 73 1003.4
20260506164023 60 44 3.0 6.0 0.00 0.00 0.00 73 1003.2
20260506163519 61 78 7.0 8.0 0.00 0.00 0.00 72 1003.4
20260506163015 61 88 5.0 9.0 0.00 0.00 0.00 71 1003.3
20260506162512 61 57 3.0 6.0 0.00 0.00 0.00 72 1003.2
20260506162009 62 76 4.0 10.0 0.00 0.00 0.00 70 1003.2
20260506161506 62 72 8.0 10.0 0.00 0.00 0.00 69 1003.4
20260506161003 63 95 3.0 11.0 0.00 0.00 0.00 71 1003.2
20260506160501 63 50 5.0 7.0 0.00 0.00 0.00 70 1003.3
20260506155958 64 67 6.0 9.0 0.00 0.00 0.00 70 1003.3
20260506155456 64 84 7.0 9.0 0.00 0.00 0.00 69 1003.3
20260506153622 64 54 4.0 10.0 0.00 0.00 0.00 71 1003.5
20260506153120 63 98 2.0 8.0 0.00 0.00 0.00 72 1003.7
20260506152617 63 70 1.0 8.0 0.00 0.00 0.00 74 1003.6
20260506152114 63 69 4.0 6.0 0.00 0.00 0.00 75 1003.8
20260506151613 63 90 5.0 8.0 0.00 0.00 0.00 75 1003.9
20260506151109 63 59 5.0 8.0 0.00 0.00 0.00 76 1003.8
20260506150606 63 42 3.0 7.0 0.00 0.00 0.00 76 1003.8
20260506145600 64 74 4.0 8.0 0.00 0.00 0.00 74 1003.9
20260506145057 63 106 4.0 7.0 0.00 0.00 0.00 74 1004.0
20260506144554 63 70 2.0 10.0 0.00 0.00 0.00 75 1004.1
20260506144051 63 82 3.0 7.0 0.00 0.00 0.00 74 1004.5
20260506143548 63 54 4.0 9.0 0.00 0.00 0.00 74 1004.3
20260506143047 64 75 1.0 4.0 0.00 0.00 0.00 74 1004.7
20260506142544 64 63 3.0 3.0 0.00 0.00 0.00 72 1004.7
20260506142042 64 98 0.0 1.0 0.00 0.00 0.00 72 1005.0
20260506141539 65 90 0.0 4.0 0.00 0.00 0.00 71 1004.8
20260506141038 66 88 1.0 2.0 0.00 0.00 0.00 66 1005.1
20260506140535 67 112 2.0 3.0 0.00 0.00 0.00 63 1005.0
20260506140032 67 57 0.0 0.0 0.00 0.00 0.00 62 1004.9
20260506135529 67 59 1.0 2.0 0.00 0.00 0.00 61 1004.6
20260506135025 67 67 1.0 4.0 0.00 0.00 0.00 61 1004.5
20260506134521 68 75 3.0 6.0 0.00 0.00 0.00 59 1004.4
20260506134017 68 41 4.0 6.0 0.00 0.00 0.00 59 1004.5
20260506133515 68 108 3.0 7.0 0.00 0.00 0.00 59 1004.7
20260506133012 69 109 1.0 3.0 0.00 0.00 0.00 59 1004.7
20260506132509 69 100 0.0 6.0 0.00 0.00 0.00 57 1004.9
20260506132006 69 95 1.0 8.0 0.00 0.00 0.00 58 1004.8
20260506131503 69 131 6.0 8.0 0.00 0.00 0.00 57 1004.8
20260506130959 68 172 6.0 13.0 0.00 0.00 0.00 58 1005.0
20260506130456 68 107 9.0 13.0 0.00 0.00 0.00 58 1005.0
20260506125954 68 145 3.0 6.0 0.00 0.00 0.00 59 1004.9
20260506125452 67 148 9.0 11.0 0.00 0.00 0.00 59 1005.3
20260506124949 67 100 9.0 13.0 0.00 0.00 0.00 59 1005.3
20260506124447 67 111 5.0 14.0 0.00 0.00 0.00 59 1005.3
20260506123945 67 116 5.0 9.0 0.00 0.00 0.00 59 1005.4
20260506123443 67 66 5.0 7.0 0.00 0.00 0.00 59 1005.5
20260506122940 68 157 6.0 9.0 0.00 0.00 0.00 57 1005.6
20260506122437 67 101 6.0 8.0 0.00 0.00 0.00 58 1005.6
20260506121935 67 83 1.0 7.0 0.00 0.00 0.00 58 1005.7
20260506121432 67 77 9.0 14.0 0.00 0.00 0.00 57 1005.8
20260506120929 67 114 5.0 7.0 0.00 0.00 0.00 56 1005.8
20260506120426 68 113 1.0 10.0 0.00 0.00 0.00 57 1005.9
20260506115923 67 55 3.0 6.0 0.00 0.00 0.00 56 1005.9
20260506115421 67 136 6.0 9.0 0.00 0.00 0.00 57 1005.9
20260506114919 68 144 5.0 9.0 0.00 0.00 0.00 55 1006.0
20260506114416 68 91 0.0 4.0 0.00 0.00 0.00 56 1006.0
20260506113915 68 221 2.0 14.0 0.00 0.00 0.00 55 1005.7
20260506113412 67 115 3.0 9.0 0.00 0.00 0.00 57 1005.8
20260506112909 67 92 15.0 17.0 0.00 0.00 0.00 55 1005.9
20260506112407 66 49 2.0 9.0 0.00 0.00 0.00 57 1006.1
20260506111904 66 77 4.0 13.0 0.00 0.00 0.00 58 1006.1
20260506111402 66 84 1.0 9.0 0.00 0.00 0.00 56 1006.2
20260506110858 66 94 2.0 7.0 0.00 0.00 0.00 57 1006.5
20260506110356 66 111 6.0 10.0 0.00 0.00 0.00 57 1006.3
20260506105852 66 86 1.0 13.0 0.00 0.00 0.00 57 1006.5
20260506105349 65 116 2.0 7.0 0.00 0.00 0.00 57 1006.5
20260506104847 65 113 6.0 14.0 0.00 0.00 0.00 58 1006.4
20260506104344 65 146 4.0 9.0 0.00 0.00 0.00 57 1006.4
20260506103842 64 88 6.0 8.0 0.00 0.00 0.00 57 1006.5
20260506103339 64 75 6.0 13.0 0.00 0.00 0.00 58 1006.4
20260506102836 64 92 3.0 6.0 0.00 0.00 0.00 57 1006.8
20260506102334 64 75 6.0 8.0 0.00 0.00 0.00 58 1006.6
20260506101831 64 96 11.0 16.0 0.00 0.00 0.00 58 1006.6
20260506101327 63 46 7.0 9.0 0.00 0.00 0.00 57 1006.9
20260506100825 63 106 5.0 9.0 0.00 0.00 0.00 58 1006.8
20260506100323 64 104 7.0 14.0 0.00 0.00 0.00 57 1006.8
20260506095821 63 41 3.0 4.0 0.00 0.00 0.00 58 1006.8
20260506095318 62 90 2.0 7.0 0.00 0.00 0.00 59 1006.9
20260506094815 62 72 6.0 9.0 0.00 0.00 0.00 59 1006.9
20260506094314 62 71 1.0 7.0 0.00 0.00 0.00 60 1006.8
20260506093811 62 116 8.0 11.0 0.00 0.00 0.00 59 1006.7
20260506093308 62 73 10.0 13.0 0.00 0.00 0.00 59 1007.0
20260506092806 62 146 8.0 11.0 0.00 0.00 0.00 59 1007.2
20260506092306 62 113 6.0 10.0 0.00 0.00 0.00 59 1006.9
20260506091801 61 125 11.0 17.0 0.00 0.00 0.00 60 1006.6
20260506091258 62 41 4.0 19.0 0.00 0.00 0.00 61 1006.7
20260506090756 61 138 8.0 10.0 0.00 0.00 0.00 60 1006.7
20260506090253 60 34 10.0 14.0 0.00 0.00 0.00 61 1006.6
20260506085749 60 31 3.0 13.0 0.00 0.00 0.00 62 1006.8
20260506085246 61 59 13.0 18.0 0.00 0.00 0.00 61 1006.6
20260506084742 60 28 11.0 14.0 0.00 0.00 0.00 63 1006.5
20260506084238 60 78 5.0 11.0 0.00 0.00 0.00 62 1006.8
20260506083736 59 60 2.0 8.0 0.00 0.00 0.00 64 1006.6
20260506083233 59 48 7.0 13.0 0.00 0.00 0.00 62 1006.8
20260506082731 60 40 9.0 14.0 0.00 0.00 0.00 63 1007.1
20260506082226 59 35 8.0 14.0 0.00 0.00 0.00 64 1007.1
20260506081724 60 98 6.0 15.0 0.00 0.00 0.00 63 1006.9
20260506081221 59 93 5.0 8.0 0.00 0.00 0.00 64 1007.1
20260506080719 59 39 2.0 8.0 0.00 0.00 0.00 65 1007.1
20260506080215 59 91 3.0 6.0 0.00 0.00 0.00 66 1007.1
20260506073159 57 94 4.0 11.0 0.00 0.00 0.00 69 1007.3
20260506072656 57 70 5.0 15.0 0.00 0.00 0.00 70 1007.3
20260506072154 56 27 12.0 16.0 0.00 0.00 0.00 71 1007.5
20260506071651 56 47 9.0 10.0 0.00 0.00 0.00 71 1007.5
20260506071148 56 38 6.0 15.0 0.00 0.00 0.00 72 1007.4
20260506070645 56 44 3.0 8.0 0.00 0.00 0.00 72 1007.3
20260506070142 55 52 5.0 11.0 0.00 0.00 0.00 72 1007.5
20260506062120 54 43 5.0 10.0 0.00 0.00 0.00 76 1007.7
20260506061615 54 43 8.0 13.0 0.00 0.00 0.00 78 1007.4
20260506061113 54 99 1.0 7.0 0.00 0.00 0.00 77 1007.6